TimeEST,TemperatureF,Dew PointF,Humidity,Sea Level PressureIn,VisibilityMPH,Wind Direction,Wind SpeedMPH,Gust SpeedMPH,PrecipitationIn,Events,Conditions,WindDirDegrees,DateUTC
12:19 AM,35.1,27.0,72,29.43,10.0,WNW,10.4,24.2,N/A,,Overcast,300,2013-11-28 05:19:00
12:51 AM,35.1,27.0,72,29.47,10.0,WNW,13.8,25.3,N/A,,Overcast,290,2013-11-28 05:51:00
1:51 AM,35.1,26.1,70,29.52,10.0,WNW,12.7,-,N/A,,Overcast,290,2013-11-28 06:51:00
2:51 AM,34.0,27.0,75,29.56,10.0,WNW,12.7,25.3,0.00,,Overcast,290,2013-11-28 07:51:00
3:51 AM,32.0,21.9,66,29.62,10.0,West,13.8,21.9,N/A,,Scattered Clouds,280,2013-11-28 08:51:00
4:51 AM,30.0,18.0,61,29.69,10.0,WNW,18.4,26.5,N/A,,Partly Cloudy,290,2013-11-28 09:51:00
5:51 AM,28.9,18.0,64,29.76,10.0,NW,10.4,21.9,N/A,,Clear,310,2013-11-28 10:51:00
6:51 AM,28.0,17.1,63,29.82,10.0,WNW,12.7,24.2,N/A,,Scattered Clouds,290,2013-11-28 11:51:00
7:51 AM,28.0,14.0,56,29.89,10.0,WNW,11.5,21.9,N/A,,Partly Cloudy,290,2013-11-28 12:51:00
8:51 AM,28.0,12.9,53,29.96,10.0,WNW,11.5,24.2,N/A,,Clear,290,2013-11-28 13:51:00
9:51 AM,28.0,12.0,51,30.01,10.0,WNW,15.0,28.8,N/A,,Clear,290,2013-11-28 14:51:00
10:51 AM,28.0,10.0,47,30.05,10.0,West,13.8,25.3,N/A,,Clear,280,2013-11-28 15:51:00
11:51 AM,28.0,9.0,45,30.08,10.0,WNW,20.7,-,N/A,,Clear,300,2013-11-28 16:51:00
12:51 PM,28.0,6.1,39,30.12,10.0,West,17.3,28.8,N/A,,Partly Cloudy,280,2013-11-28 17:51:00
1:51 PM,28.0,3.9,36,30.14,10.0,WNW,19.6,27.6,N/A,,Clear,290,2013-11-28 18:51:00
2:51 PM,28.0,1.9,33,30.17,10.0,NW,18.4,28.8,N/A,,Clear,320,2013-11-28 19:51:00
3:51 PM,26.1,3.0,37,30.21,10.0,WNW,12.7,19.6,N/A,,Clear,290,2013-11-28 20:51:00
4:51 PM,25.0,3.9,41,30.25,10.0,West,9.2,-,N/A,,Clear,280,2013-11-28 21:51:00
5:51 PM,24.1,3.9,42,30.31,10.0,West,10.4,-,N/A,,Clear,260,2013-11-28 22:51:00
6:51 PM,24.1,3.0,40,30.33,10.0,West,6.9,-,N/A,,Clear,270,2013-11-28 23:51:00
7:51 PM,23.0,3.9,44,30.35,10.0,West,6.9,-,N/A,,Clear,270,2013-11-29 00:51:00
8:51 PM,21.9,3.9,46,30.38,10.0,Variable,3.5,-,N/A,,Clear,0,2013-11-29 01:51:00
9:51 PM,17.1,5.0,59,30.40,10.0,Calm,Calm,-,N/A,,Clear,0,2013-11-29 02:51:00
10:51 PM,18.0,5.0,57,30.42,10.0,WNW,4.6,-,N/A,,Clear,300,2013-11-29 03:51:00
11:51 PM,16.0,7.0,68,30.43,10.0,Calm,Calm,-,N/A,,Clear,0,2013-11-29 04:51:00